| time (UTC) | temp F | wind direction | speed MPH | gust MPH | rain 1hr in | rain 24hr in | rain mn in | humidity % | barometer mb |
| 20260903014426 | 57 | 155 | 1.0 | 3.0 | 0.04 | 0.26 | 0.24 | 96 | 1005.0 |
| 20260903013918 | 57 | 116 | 1.0 | 4.0 | 0.03 | 0.25 | 0.23 | 95 | 1005.0 |
| 20260903013413 | 57 | 130 | 2.0 | 7.0 | 0.02 | 0.24 | 0.22 | 95 | 1004.8 |
| 20260903012906 | 57 | 143 | 2.0 | 7.0 | 0.01 | 0.23 | 0.22 | 95 | 1004.7 |
| 20260903012402 | 57 | 161 | 1.0 | 4.0 | 0.00 | 0.22 | 0.20 | 95 | 1004.5 |
| 20260903011855 | 57 | 226 | 0.0 | 3.0 | 0.00 | 0.22 | 0.20 | 95 | 1003.8 |
| 20260903011844 | 57 | 255 | 1.0 | 3.0 | 0.00 | 0.22 | 0.20 | 95 | 1003.6 |
| 20260903010843 | 58 | 229 | 0.0 | 3.0 | 0.00 | 0.22 | 0.20 | 95 | 1003.5 |
| 20260903010338 | 58 | 49 | 0.0 | 2.0 | 0.00 | 0.22 | 0.20 | 95 | 1003.5 |
| 20260903005831 | 58 | 49 | 0.0 | 2.0 | 0.00 | 0.22 | 0.20 | 95 | 1003.6 |
| 20260903005324 | 58 | 38 | 1.0 | 3.0 | 0.00 | 0.22 | 0.20 | 95 | 1003.6 |
| 20260903004818 | 58 | 196 | 1.0 | 5.0 | 0.01 | 0.22 | 0.20 | 95 | 1003.6 |
| 20260903004315 | 58 | 195 | 1.0 | 5.0 | 0.01 | 0.22 | 0.20 | 95 | 1003.6 |
| 20260903003807 | 58 | 217 | 1.0 | 4.0 | 0.02 | 0.22 | 0.20 | 95 | 1003.7 |
| 20260903003302 | 58 | 219 | 0.0 | 4.0 | 0.03 | 0.22 | 0.20 | 95 | 1003.8 |
| 20260903003020 | 58 | 142 | 0.0 | 1.0 | 0.04 | 0.22 | 0.20 | 94 | 1003.9 |
| 20260903002250 | 59 | 142 | 0.0 | 1.0 | 0.05 | 0.22 | 0.20 | 95 | 1003.9 |
| 20260903001743 | 59 | 142 | 0.0 | 1.0 | 0.06 | 0.22 | 0.20 | 95 | 1004.0 |
| 20260903001238 | 59 | 142 | 0.0 | 1.0 | 0.06 | 0.22 | 0.20 | 95 | 1004.0 |
| 20260903000731 | 59 | 190 | 0.0 | 1.0 | 0.07 | 0.22 | 0.20 | 94 | 1004.0 |
| 20260903000457 | 59 | 190 | 0.0 | 3.0 | 0.07 | 0.22 | 0.20 | 94 | 1004.0 |
| 20260902235720 | 59 | 190 | 0.0 | 3.0 | 0.08 | 0.22 | 0.20 | 94 | 1003.8 |
| 20260902235213 | 59 | 48 | 0.0 | 2.0 | 0.08 | 0.22 | 0.20 | 94 | 1003.8 |
| 20260902234707 | 59 | 50 | 0.0 | 2.0 | 0.07 | 0.21 | 0.19 | 94 | 1003.8 |
| 20260902234202 | 60 | 178 | 0.0 | 2.0 | 0.08 | 0.21 | 0.19 | 93 | 1004.0 |
| 20260902233654 | 60 | 121 | 0.0 | 1.0 | 0.08 | 0.20 | 0.18 | 93 | 1004.1 |
| 20260902233149 | 60 | 202 | 0.0 | 1.0 | 0.06 | 0.18 | 0.17 | 92 | 1004.5 |
| 20260902232643 | 60 | 202 | 0.0 | 0.0 | 0.06 | 0.18 | 0.16 | 92 | 1004.4 |
| 20260902232138 | 60 | 202 | 0.0 | 0.0 | 0.05 | 0.17 | 0.15 | 92 | 1004.4 |
| 20260902231632 | 60 | 203 | 0.0 | 2.0 | 0.04 | 0.16 | 0.14 | 91 | 1004.2 |
| 20260902231348 | 60 | 203 | 0.0 | 2.0 | 0.04 | 0.16 | 0.14 | 91 | 1004.2 |
| 20260902230619 | 60 | 132 | 0.0 | 2.0 | 0.03 | 0.15 | 0.13 | 91 | 1004.1 |
| 20260902230114 | 61 | 132 | 0.0 | 2.0 | 0.03 | 0.15 | 0.13 | 90 | 1004.0 |
| 20260902225607 | 61 | 134 | 0.0 | 2.0 | 0.02 | 0.14 | 0.12 | 89 | 1004.0 |
| 20260902225101 | 61 | 134 | 1.0 | 3.0 | 0.02 | 0.14 | 0.12 | 88 | 1003.8 |
| 20260902224555 | 62 | 134 | 1.0 | 7.0 | 0.01 | 0.13 | 0.12 | 85 | 1003.7 |
| 20260902224050 | 62 | 226 | 2.0 | 7.0 | 0.01 | 0.13 | 0.11 | 83 | 1003.8 |
| 20260902223805 | 62 | 211 | 1.0 | 5.0 | 0.00 | 0.12 | 0.10 | 82 | 1003.7 |
| 20260902223037 | 63 | 227 | 1.0 | 5.0 | 0.00 | 0.12 | 0.10 | 80 | 1003.6 |
| 20260902222531 | 63 | 277 | 1.0 | 4.0 | 0.00 | 0.12 | 0.10 | 79 | 1003.5 |
| 20260902222026 | 63 | 317 | 0.0 | 2.0 | 0.00 | 0.12 | 0.10 | 82 | 1003.5 |
| 20260902221519 | 64 | 116 | 0.0 | 1.0 | 0.00 | 0.12 | 0.10 | 82 | 1003.3 |
| 20260902221016 | 64 | 138 | 0.0 | 1.0 | 0.00 | 0.12 | 0.10 | 83 | 1003.1 |
| 20260902220515 | 64 | 138 | 0.0 | 3.0 | 0.00 | 0.12 | 0.10 | 81 | 1002.9 |
| 20260902220015 | 64 | 138 | 0.0 | 3.0 | 0.00 | 0.12 | 0.10 | 79 | 1003.0 |
| 20260902215511 | 64 | 100 | 1.0 | 7.0 | 0.00 | 0.12 | 0.10 | 80 | 1003.1 |
| 20260902215011 | 64 | 213 | 2.0 | 7.0 | 0.00 | 0.12 | 0.10 | 77 | 1003.2 |
| 20260902214513 | 64 | 151 | 1.0 | 6.0 | 0.00 | 0.12 | 0.10 | 77 | 1003.2 |
| 20260902214021 | 64 | 168 | 2.0 | 6.0 | 0.00 | 0.12 | 0.10 | 77 | 1003.3 |
| 20260902213518 | 64 | 143 | 2.0 | 6.0 | 0.00 | 0.12 | 0.10 | 76 | 1003.2 |
| 20260902213013 | 65 | 131 | 1.0 | 5.0 | 0.00 | 0.12 | 0.10 | 76 | 1003.3 |
| 20260902212511 | 65 | 171 | 1.0 | 4.0 | 0.00 | 0.12 | 0.10 | 77 | 1003.4 |
| 20260902212010 | 66 | 142 | 1.0 | 3.0 | 0.00 | 0.12 | 0.10 | 77 | 1003.3 |
| 20260902211509 | 66 | 165 | 0.0 | 3.0 | 0.00 | 0.12 | 0.10 | 76 | 1003.3 |
| 20260902211010 | 66 | 320 | 0.0 | 2.0 | 0.00 | 0.12 | 0.10 | 79 | 1003.2 |
| 20260902210507 | 66 | 320 | 0.0 | 2.0 | 0.00 | 0.12 | 0.10 | 80 | 1003.1 |
| 20260902210003 | 66 | 248 | 0.0 | 2.0 | 0.00 | 0.12 | 0.10 | 81 | 1003.1 |
| 20260902205732 | 66 | 350 | 0.0 | 2.0 | 0.00 | 0.12 | 0.10 | 81 | 1003.0 |
| 20260902205003 | 65 | 26 | 0.0 | 2.0 | 0.00 | 0.12 | 0.10 | 80 | 1003.0 |
| 20260902204506 | 65 | 328 | 0.0 | 2.0 | 0.00 | 0.12 | 0.10 | 83 | 1003.0 |
| 20260902204002 | 65 | 313 | 0.0 | 2.0 | 0.00 | 0.12 | 0.10 | 86 | 1002.9 |
| 20260902203500 | 64 | 295 | 0.0 | 2.0 | 0.00 | 0.12 | 0.10 | 90 | 1002.9 |
| 20260902203000 | 64 | 249 | 0.0 | 1.0 | 0.00 | 0.12 | 0.10 | 89 | 1002.9 |
| 20260902202501 | 64 | 249 | 0.0 | 1.0 | 0.00 | 0.12 | 0.10 | 92 | 1002.9 |
| 20260902202002 | 64 | 249 | 0.0 | 1.0 | 0.00 | 0.12 | 0.10 | 93 | 1002.9 |
| 20260902201500 | 63 | 249 | 0.0 | 0.0 | 0.00 | 0.12 | 0.10 | 92 | 1002.9 |
| 20260902201001 | 63 | 249 | 0.0 | 0.0 | 0.00 | 0.12 | 0.10 | 92 | 1003.1 |
| 20260902200500 | 63 | 249 | 0.0 | 0.0 | 0.00 | 0.12 | 0.10 | 93 | 1003.1 |
| 20260902200002 | 63 | 249 | 0.0 | 0.0 | 0.00 | 0.12 | 0.10 | 93 | 1003.2 |
| 20260902195500 | 63 | 249 | 0.0 | 0.0 | 0.00 | 0.12 | 0.10 | 93 | 1003.3 |
| 20260902195231 | 63 | 249 | 0.0 | 0.0 | 0.00 | 0.12 | 0.10 | 92 | 1003.3 |
| 20260902194501 | 63 | 249 | 0.0 | 0.0 | 0.00 | 0.12 | 0.10 | 91 | 1003.5 |
| 20260902194002 | 63 | 249 | 0.0 | 1.0 | 0.00 | 0.12 | 0.10 | 90 | 1003.5 |
| 20260902193732 | 63 | 249 | 0.0 | 2.0 | 0.00 | 0.12 | 0.10 | 92 | 1003.6 |
| 20260902192959 | 63 | 249 | 0.0 | 2.0 | 0.00 | 0.12 | 0.10 | 87 | 1003.7 |
| 20260902192500 | 63 | 242 | 0.0 | 0.0 | 0.00 | 0.12 | 0.10 | 91 | 1003.7 |
| 20260902192002 | 63 | 242 | 0.0 | 0.0 | 0.00 | 0.12 | 0.10 | 92 | 1003.8 |
| 20260902191506 | 63 | 242 | 0.0 | 0.0 | 0.00 | 0.12 | 0.10 | 93 | 1003.9 |
| 20260902191451 | 63 | 242 | 0.0 | 2.0 | 0.00 | 0.12 | 0.10 | 94 | 1003.9 |
| 20260902190458 | 63 | 242 | 0.0 | 2.0 | 0.00 | 0.12 | 0.10 | 94 | 1004.0 |
| 20260902185950 | 62 | 256 | 0.0 | 1.0 | 0.00 | 0.12 | 0.10 | 94 | 1004.1 |
| 20260902185441 | 62 | 256 | 0.0 | 1.0 | 0.00 | 0.12 | 0.10 | 94 | 1004.0 |
| 20260902184937 | 62 | 256 | 0.0 | 1.0 | 0.00 | 0.12 | 0.10 | 94 | 1004.1 |
| 20260902184433 | 62 | 256 | 0.0 | 1.0 | 0.00 | 0.12 | 0.10 | 95 | 1004.1 |
| 20260902183926 | 62 | 256 | 0.0 | 0.0 | 0.00 | 0.12 | 0.10 | 95 | 1004.3 |
| 20260902183422 | 62 | 256 | 0.0 | 1.0 | 0.00 | 0.12 | 0.10 | 95 | 1004.4 |
| 20260902182915 | 62 | 256 | 0.0 | 1.0 | 0.00 | 0.12 | 0.10 | 95 | 1004.5 |
| 20260902182408 | 62 | 257 | 0.0 | 1.0 | 0.00 | 0.12 | 0.10 | 96 | 1004.6 |
| 20260902181905 | 62 | 257 | 0.0 | 1.0 | 0.00 | 0.12 | 0.10 | 96 | 1004.6 |
| 20260902181356 | 62 | 254 | 0.0 | 1.0 | 0.00 | 0.12 | 0.10 | 97 | 1004.7 |
| 20260902180850 | 61 | 254 | 0.0 | 1.0 | 0.00 | 0.12 | 0.10 | 97 | 1004.7 |
| 20260902180608 | 61 | 254 | 0.0 | 1.0 | 0.00 | 0.12 | 0.10 | 97 | 1004.7 |
| 20260902175838 | 61 | 254 | 0.0 | 1.0 | 0.00 | 0.12 | 0.10 | 97 | 1004.7 |
| 20260902175331 | 60 | 254 | 0.0 | 2.0 | 0.00 | 0.12 | 0.10 | 97 | 1004.8 |
| 20260902174824 | 60 | 254 | 0.0 | 2.0 | 0.00 | 0.12 | 0.10 | 98 | 1004.9 |
| 20260902174541 | 60 | 264 | 0.0 | 2.0 | 0.00 | 0.12 | 0.10 | 97 | 1005.0 |
| 20260902173811 | 60 | 264 | 0.0 | 2.0 | 0.00 | 0.12 | 0.10 | 97 | 1005.1 |
| 20260902173305 | 60 | 207 | 0.0 | 2.0 | 0.00 | 0.12 | 0.10 | 98 | 1005.0 |
| 20260902173011 | 59 | 198 | 0.0 | 1.0 | 0.00 | 0.12 | 0.10 | 98 | 1005.0 |
| 20260902172514 | 59 | 198 | 0.0 | 2.0 | 0.00 | 0.12 | 0.10 | 97 | 1005.1 |
| 20260902171748 | 59 | 198 | 1.0 | 2.0 | 0.00 | 0.12 | 0.10 | 97 | 1005.1 |
| 20260902171509 | 59 | 195 | 0.0 | 2.0 | 0.00 | 0.12 | 0.10 | 98 | 1005.1 |
| 20260902171000 | 59 | 200 | 0.0 | 2.0 | 0.00 | 0.12 | 0.10 | 97 | 1005.2 |
| 20260902170230 | 58 | 176 | 0.0 | 2.0 | 0.00 | 0.12 | 0.10 | 97 | 1005.1 |
| 20260902165724 | 58 | 175 | 0.0 | 1.0 | 0.00 | 0.12 | 0.10 | 97 | 1005.2 |
| 20260902165217 | 58 | 175 | 0.0 | 1.0 | 0.00 | 0.12 | 0.10 | 97 | 1005.2 |
| 20260902164714 | 57 | 175 | 0.0 | 2.0 | 0.00 | 0.12 | 0.10 | 97 | 1005.3 |
| 20260902164206 | 57 | 217 | 0.0 | 2.0 | 0.00 | 0.12 | 0.10 | 97 | 1005.3 |
| 20260902163657 | 57 | 217 | 0.0 | 2.0 | 0.00 | 0.12 | 0.10 | 97 | 1005.6 |
| 20260902163154 | 57 | 208 | 0.0 | 2.0 | 0.00 | 0.12 | 0.10 | 97 | 1005.5 |
| 20260902162650 | 56 | 210 | 0.0 | 2.0 | 0.00 | 0.12 | 0.10 | 97 | 1005.6 |
| 20260902162142 | 56 | 192 | 0.0 | 4.0 | 0.00 | 0.12 | 0.10 | 97 | 1005.6 |
| 20260902161635 | 56 | 202 | 0.0 | 4.0 | 0.00 | 0.12 | 0.10 | 97 | 1005.7 |
| 20260902161348 | 56 | 194 | 0.0 | 2.0 | 0.00 | 0.12 | 0.10 | 97 | 1005.8 |
| 20260902160626 | 56 | 199 | 0.0 | 2.0 | 0.00 | 0.12 | 0.10 | 97 | 1005.9 |
| 20260902160118 | 56 | 148 | 1.0 | 5.0 | 0.00 | 0.12 | 0.10 | 97 | 1005.9 |
| 20260902155830 | 56 | 165 | 1.0 | 5.0 | 0.00 | 0.13 | 0.10 | 97 | 1005.9 |
| 20260902155105 | 56 | 190 | 0.0 | 2.0 | 0.00 | 0.13 | 0.10 | 97 | 1006.1 |
| 20260902154602 | 56 | 157 | 0.0 | 4.0 | 0.00 | 0.13 | 0.10 | 97 | 1006.0 |
| 20260902154054 | 56 | 157 | 1.0 | 4.0 | 0.00 | 0.13 | 0.10 | 97 | 1006.2 |
| 20260902153547 | 56 | 212 | 0.0 | 3.0 | 0.00 | 0.13 | 0.10 | 97 | 1006.3 |
| 20260902153041 | 56 | 209 | 0.0 | 1.0 | 0.00 | 0.13 | 0.10 | 97 | 1006.3 |
| 20260902152534 | 56 | 209 | 0.0 | 2.0 | 0.00 | 0.13 | 0.10 | 97 | 1006.3 |
| 20260902152251 | 56 | 209 | 1.0 | 4.0 | 0.00 | 0.13 | 0.10 | 97 | 1006.4 |
| 20260902151524 | 56 | 199 | 1.0 | 4.0 | 0.00 | 0.13 | 0.10 | 97 | 1006.5 |
| 20260902151017 | 56 | 209 | 0.0 | 2.0 | 0.00 | 0.13 | 0.10 | 97 | 1006.6 |
| 20260902150514 | 56 | 206 | 0.0 | 2.0 | 0.00 | 0.13 | 0.10 | 97 | 1006.6 |
| 20260902150006 | 56 | 213 | 0.0 | 2.0 | 0.00 | 0.13 | 0.10 | 97 | 1006.8 |
| 20260902145500 | 56 | 213 | 1.0 | 3.0 | 0.00 | 0.13 | 0.10 | 97 | 1006.8 |
| 20260902144954 | 56 | 221 | 1.0 | 3.0 | 0.00 | 0.13 | 0.10 | 97 | 1006.9 |
| 20260902144449 | 56 | 200 | 1.0 | 3.0 | 0.00 | 0.13 | 0.10 | 97 | 1007.0 |
| 20260902143941 | 56 | 202 | 1.0 | 3.0 | 0.00 | 0.13 | 0.10 | 97 | 1007.2 |
| 20260902143436 | 55 | 186 | 1.0 | 3.0 | 0.00 | 0.13 | 0.10 | 97 | 1007.2 |
| 20260902142931 | 55 | 196 | 1.0 | 3.0 | 0.00 | 0.13 | 0.10 | 97 | 1007.2 |
| 20260902142422 | 55 | 210 | 0.0 | 2.0 | 0.00 | 0.13 | 0.10 | 97 | 1007.2 |
| 20260902141918 | 55 | 244 | 0.0 | 2.0 | 0.00 | 0.13 | 0.10 | 97 | 1007.2 |
| 20260902141412 | 55 | 207 | 0.0 | 0.0 | 0.00 | 0.13 | 0.10 | 97 | 1007.3 |
| 20260902140906 | 55 | 207 | 0.0 | 2.0 | 0.00 | 0.13 | 0.10 | 97 | 1007.2 |
| 20260902140402 | 55 | 207 | 0.0 | 2.0 | 0.00 | 0.13 | 0.10 | 97 | 1007.2 |
| 20260902135854 | 55 | 187 | 1.0 | 3.0 | 0.00 | 0.13 | 0.10 | 97 | 1007.2 |
| 20260902135622 | 55 | 188 | 1.0 | 3.0 | 0.00 | 0.13 | 0.10 | 96 | 1007.1 |
| 20260902134849 | 55 | 259 | 1.0 | 3.0 | 0.00 | 0.13 | 0.10 | 96 | 1007.1 |
| 20260902134350 | 55 | 195 | 1.0 | 2.0 | 0.00 | 0.13 | 0.10 | 96 | 1007.1 |
| 20260902133851 | 55 | 223 | 0.0 | 2.0 | 0.00 | 0.13 | 0.10 | 96 | 1007.0 |
| 20260902133624 | 55 | 200 | 0.0 | 2.0 | 0.00 | 0.13 | 0.10 | 97 | 1007.1 |
| 20260902132849 | 56 | 207 | 0.0 | 2.0 | 0.00 | 0.13 | 0.10 | 97 | 1007.1 |
| 20260902132620 | 56 | 210 | 0.0 | 0.0 | 0.00 | 0.13 | 0.10 | 97 | 1007.1 |
| 20260902131851 | 56 | 210 | 0.0 | 0.0 | 0.00 | 0.13 | 0.10 | 96 | 1007.1 |
| 20260902131349 | 56 | 210 | 0.0 | 0.0 | 0.00 | 0.13 | 0.10 | 97 | 1007.1 |
| 20260902130847 | 56 | 210 | 0.0 | 1.0 | 0.00 | 0.13 | 0.10 | 96 | 1007.1 |
| 20260902130348 | 56 | 210 | 0.0 | 1.0 | 0.00 | 0.13 | 0.10 | 97 | 1007.2 |
| 20260902130121 | 56 | 210 | 0.0 | 0.0 | 0.00 | 0.13 | 0.10 | 96 | 1007.2 |
| 20260902125349 | 56 | 210 | 0.0 | 1.0 | 0.00 | 0.13 | 0.10 | 97 | 1007.2 |
| 20260902124847 | 56 | 210 | 0.0 | 1.0 | 0.00 | 0.13 | 0.10 | 96 | 1007.2 |
| 20260902124348 | 56 | 210 | 0.0 | 2.0 | 0.00 | 0.13 | 0.10 | 97 | 1007.3 |
| 20260902123847 | 56 | 210 | 0.0 | 2.0 | 0.00 | 0.13 | 0.10 | 97 | 1007.4 |
| 20260902123349 | 56 | 171 | 0.0 | 0.0 | 0.00 | 0.13 | 0.10 | 97 | 1007.4 |
| 20260902122846 | 56 | 171 | 0.0 | 0.0 | 0.00 | 0.13 | 0.10 | 97 | 1007.4 |
| 20260902122348 | 56 | 171 | 0.0 | 0.0 | 0.00 | 0.13 | 0.10 | 97 | 1007.3 |
| 20260902121846 | 56 | 171 | 0.0 | 0.0 | 0.00 | 0.13 | 0.10 | 97 | 1007.4 |
| 20260902121349 | 56 | 171 | 0.0 | 0.0 | 0.01 | 0.13 | 0.10 | 97 | 1007.4 |
| 20260902120855 | 56 | 171 | 0.0 | 1.0 | 0.01 | 0.13 | 0.10 | 96 | 1007.4 |
| 20260902120351 | 56 | 171 | 0.0 | 1.0 | 0.02 | 0.13 | 0.10 | 97 | 1007.4 |
| 20260902115843 | 56 | 171 | 0.0 | 0.0 | 0.03 | 0.13 | 0.10 | 97 | 1007.4 |
| 20260902115340 | 56 | 171 | 0.0 | 0.0 | 0.04 | 0.13 | 0.10 | 97 | 1007.4 |
| 20260902114841 | 56 | 171 | 0.0 | 0.0 | 0.05 | 0.13 | 0.10 | 97 | 1007.6 |
| 20260902114340 | 56 | 171 | 0.0 | 0.0 | 0.06 | 0.13 | 0.10 | 97 | 1007.6 |
| 20260902113840 | 56 | 171 | 0.0 | 0.0 | 0.07 | 0.13 | 0.10 | 97 | 1007.8 |
| 20260902113557 | 56 | 171 | 0.0 | 0.0 | 0.07 | 0.13 | 0.10 | 97 | 1007.8 |
| 20260902112838 | 56 | 171 | 0.0 | 0.0 | 0.07 | 0.13 | 0.10 | 97 | 1007.9 |
| 20260902112337 | 56 | 171 | 0.0 | 0.0 | 0.07 | 0.13 | 0.10 | 96 | 1007.9 |
| 20260902111835 | 56 | 171 | 0.0 | 0.0 | 0.07 | 0.13 | 0.10 | 96 | 1007.9 |
| 20260902111334 | 56 | 171 | 0.0 | 0.0 | 0.06 | 0.12 | 0.09 | 96 | 1007.8 |
| 20260902110839 | 56 | 171 | 0.0 | 0.0 | 0.06 | 0.12 | 0.09 | 96 | 1008.0 |
| 20260902110557 | 56 | 171 | 0.0 | 0.0 | 0.05 | 0.11 | 0.08 | 96 | 1008.0 |
| 20260902105829 | 56 | 171 | 0.0 | 0.0 | 0.04 | 0.10 | 0.07 | 96 | 1008.0 |
| 20260902105330 | 56 | 171 | 0.0 | 0.0 | 0.03 | 0.09 | 0.06 | 96 | 1008.0 |
| 20260902105322 | 56 | 171 | 0.0 | 0.0 | 0.02 | 0.08 | 0.05 | 96 | 1008.0 |
| 20260902104323 | 56 | 171 | 0.0 | 0.0 | 0.02 | 0.07 | 0.04 | 96 | 1008.1 |
| 20260902103817 | 56 | 171 | 0.0 | 0.0 | 0.01 | 0.06 | 0.03 | 96 | 1008.1 |
| 20260902103311 | 56 | 171 | 0.0 | 0.0 | 0.02 | 0.06 | 0.03 | 96 | 1008.2 |
| 20260902102806 | 56 | 171 | 0.0 | 0.0 | 0.03 | 0.06 | 0.03 | 96 | 1008.0 |
| 20260902102259 | 56 | 171 | 0.0 | 0.0 | 0.03 | 0.06 | 0.03 | 96 | 1008.2 |
| 20260902101754 | 56 | 171 | 0.0 | 0.0 | 0.03 | 0.06 | 0.03 | 96 | 1008.2 |
| 20260902101511 | 56 | 171 | 0.0 | 0.0 | 0.03 | 0.06 | 0.03 | 96 | 1008.2 |
| 20260902100742 | 56 | 171 | 0.0 | 0.0 | 0.03 | 0.06 | 0.03 | 96 | 1008.2 |
| 20260902100507 | 56 | 171 | 0.0 | 0.0 | 0.03 | 0.06 | 0.03 | 96 | 1008.3 |
| 20260902095729 | 56 | 171 | 0.0 | 0.0 | 0.03 | 0.06 | 0.03 | 96 | 1008.3 |
| 20260902095223 | 56 | 171 | 0.0 | 0.0 | 0.03 | 0.06 | 0.03 | 96 | 1008.3 |
| 20260902094718 | 56 | 171 | 0.0 | 0.0 | 0.03 | 0.06 | 0.03 | 96 | 1008.3 |
| 20260902094548 | 56 | 171 | 0.0 | 0.0 | 0.02 | 0.05 | 0.02 | 96 | 1008.4 |
| 20260902094538 | 56 | 171 | 0.0 | 0.0 | 0.02 | 0.05 | 0.02 | 96 | 1008.3 |
| 20260902093200 | 56 | 200 | 0.0 | 0.0 | 0.00 | 0.03 | 0.00 | 96 | 1008.4 |
| 20260902092654 | 56 | 200 | 0.0 | 0.0 | 0.00 | 0.03 | 0.00 | 96 | 1008.4 |
| 20260902092147 | 56 | 200 | 0.0 | 0.0 | 0.00 | 0.03 | 0.00 | 96 | 1008.3 |
| 20260902091641 | 56 | 200 | 0.0 | 0.0 | 0.00 | 0.03 | 0.00 | 96 | 1008.3 |
| 20260902091135 | 56 | 200 | 0.0 | 0.0 | 0.00 | 0.03 | 0.00 | 96 | 1008.2 |
| 20260902090630 | 56 | 200 | 0.0 | 0.0 | 0.00 | 0.03 | 0.00 | 96 | 1008.2 |
| 20260902090123 | 56 | 200 | 0.0 | 0.0 | 0.00 | 0.03 | 0.00 | 96 | 1008.3 |
| 20260902085839 | 56 | 200 | 0.0 | 0.0 | 0.00 | 0.03 | 0.00 | 96 | 1008.3 |
| 20260902085611 | 56 | 200 | 0.0 | 0.0 | 0.00 | 0.03 | 0.00 | 96 | 1008.3 |
| 20260902084611 | 56 | 200 | 0.0 | 2.0 | 0.00 | 0.03 | 0.00 | 96 | 1008.3 |
| 20260902084111 | 56 | 200 | 0.0 | 2.0 | 0.00 | 0.03 | 0.00 | 96 | 1008.4 |
| 20260902083610 | 56 | 198 | 0.0 | 2.0 | 0.00 | 0.03 | 0.00 | 96 | 1008.4 |
| 20260902083109 | 56 | 198 | 0.0 | 2.0 | 0.00 | 0.03 | 0.00 | 96 | 1008.4 |
| 20260902082608 | 56 | 198 | 0.0 | 2.0 | 0.00 | 0.03 | 0.00 | 96 | 1008.4 |
| 20260902082109 | 56 | 198 | 0.0 | 2.0 | 0.00 | 0.03 | 0.00 | 96 | 1008.5 |
| 20260902081615 | 56 | 221 | 0.0 | 3.0 | 0.00 | 0.03 | 0.00 | 96 | 1008.6 |
| 20260902081334 | 56 | 221 | 0.0 | 3.0 | 0.00 | 0.03 | 0.00 | 96 | 1008.7 |
| 20260902080828 | 56 | 213 | 0.0 | 1.0 | 0.00 | 0.03 | 0.00 | 96 | 1008.7 |
| 20260902080326 | 56 | 213 | 0.0 | 1.0 | 0.00 | 0.03 | 0.00 | 96 | 1008.8 |
| 20260902075327 | 56 | 213 | 0.0 | 1.0 | 0.00 | 0.03 | 0.00 | 96 | 1008.9 |
| 20260902074600 | 56 | 213 | 0.0 | 1.0 | 0.00 | 0.03 | 0.00 | 96 | 1009.1 |
| 20260902074057 | 57 | 213 | 0.0 | 1.0 | 0.00 | 0.03 | 0.00 | 96 | 1009.0 |
| 20260902073557 | 57 | 215 | 1.0 | 2.0 | 0.00 | 0.03 | 0.00 | 96 | 1009.0 |
| 20260902073057 | 57 | 219 | 0.0 | 2.0 | 0.00 | 0.03 | 0.00 | 96 | 1008.9 |
| 20260902072557 | 57 | 219 | 0.0 | 1.0 | 0.00 | 0.03 | 0.00 | 96 | 1008.9 |
| 20260902072057 | 57 | 219 | 0.0 | 0.0 | 0.00 | 0.03 | 0.00 | 96 | 1008.9 |
| 20260902071555 | 57 | 219 | 0.0 | 0.0 | 0.00 | 0.03 | 0.00 | 96 | 1009.1 |
| 20260902071055 | 57 | 219 | 0.0 | 1.0 | 0.00 | 0.03 | 0.00 | 96 | 1009.1 |
| 20260902070829 | 57 | 219 | 0.0 | 1.0 | 0.00 | 0.03 | 0.00 | 96 | 1009.2 |
| 20260902070057 | 57 | 219 | 0.0 | 0.0 | 0.00 | 0.03 | 0.00 | 95 | 1009.2 |
| 20260902065555 | 57 | 219 | 0.0 | 0.0 | 0.00 | 0.03 | 0.03 | 95 | 1009.2 |
| 20260902065056 | 57 | 219 | 0.0 | 0.0 | 0.00 | 0.03 | 0.03 | 95 | 1009.3 |
| 20260902064556 | 57 | 219 | 0.0 | 0.0 | 0.00 | 0.03 | 0.03 | 95 | 1009.4 |
| 20260902064057 | 57 | 219 | 0.0 | 0.0 | 0.00 | 0.03 | 0.03 | 95 | 1009.4 |
| 20260902063602 | 57 | 219 | 0.0 | 0.0 | 0.00 | 0.03 | 0.03 | 95 | 1009.4 |
| 20260902063326 | 57 | 219 | 0.0 | 0.0 | 0.00 | 0.03 | 0.03 | 95 | 1009.4 |
| 20260902062814 | 57 | 219 | 0.0 | 0.0 | 0.00 | 0.03 | 0.03 | 95 | 1009.4 |
| 20260902062047 | 57 | 219 | 0.0 | 0.0 | 0.00 | 0.03 | 0.03 | 95 | 1009.4 |
| 20260902061524 | 58 | 219 | 0.0 | 0.0 | 0.00 | 0.03 | 0.03 | 95 | 1009.3 |
| 20260902060528 | 58 | 219 | 0.0 | 0.0 | 0.00 | 0.03 | 0.03 | 96 | 1009.3 |
| 20260902060244 | 58 | 219 | 0.0 | 0.0 | 0.00 | 0.03 | 0.03 | 96 | 1009.3 |
| 20260902055518 | 58 | 219 | 0.0 | 1.0 | 0.00 | 0.03 | 0.03 | 95 | 1009.3 |
| 20260902055011 | 58 | 219 | 0.0 | 2.0 | 0.00 | 0.03 | 0.03 | 95 | 1009.3 |
| 20260902054504 | 58 | 219 | 0.0 | 2.0 | 0.00 | 0.03 | 0.03 | 95 | 1009.5 |
| 20260902053957 | 58 | 219 | 0.0 | 0.0 | 0.00 | 0.03 | 0.03 | 95 | 1009.5 |
| 20260902053451 | 58 | 219 | 0.0 | 0.0 | 0.00 | 0.03 | 0.03 | 95 | 1009.5 |
| 20260902052946 | 58 | 219 | 0.0 | 1.0 | 0.01 | 0.03 | 0.03 | 95 | 1009.5 |
| 20260902052440 | 58 | 219 | 0.0 | 1.0 | 0.01 | 0.03 | 0.03 | 95 | 1009.7 |
| 20260902051936 | 58 | 219 | 0.0 | 1.0 | 0.01 | 0.03 | 0.03 | 95 | 1009.7 |
| 20260902051427 | 58 | 219 | 0.0 | 0.0 | 0.01 | 0.03 | 0.03 | 95 | 1009.8 |
| 20260902050921 | 58 | 219 | 1.0 | 3.0 | 0.01 | 0.03 | 0.03 | 95 | 1009.8 |
| 20260902050412 | 58 | 219 | 1.0 | 3.0 | 0.01 | 0.03 | 0.03 | 95 | 1009.8 |
| 20260902045909 | 58 | 212 | 0.0 | 2.0 | 0.01 | 0.03 | 0.03 | 95 | 1009.7 |
| 20260902045622 | 58 | 210 | 0.0 | 1.0 | 0.01 | 0.03 | 0.03 | 95 | 1009.7 |
| 20260902044858 | 58 | 223 | 0.0 | 1.0 | 0.01 | 0.03 | 0.03 | 95 | 1009.7 |
| 20260902044353 | 58 | 223 | 0.0 | 0.0 | 0.01 | 0.03 | 0.03 | 95 | 1009.7 |
| 20260902044118 | 58 | 223 | 0.0 | 2.0 | 0.01 | 0.03 | 0.03 | 95 | 1009.7 |
| 20260902043340 | 58 | 223 | 0.0 | 2.0 | 0.00 | 0.02 | 0.03 | 95 | 1009.7 |
| 20260902042833 | 58 | 223 | 0.0 | 2.0 | 0.00 | 0.02 | 0.02 | 94 | 1009.8 |
| 20260902042328 | 58 | 223 | 0.0 | 1.0 | 0.00 | 0.02 | 0.02 | 95 | 1009.7 |
| 20260902041824 | 59 | 223 | 0.0 | 1.0 | 0.00 | 0.02 | 0.02 | 94 | 1009.7 |
| 20260902041316 | 59 | 223 | 0.0 | 1.0 | 0.00 | 0.02 | 0.02 | 94 | 1009.7 |
| 20260902040810 | 59 | 223 | 0.0 | 1.0 | 0.00 | 0.02 | 0.02 | 94 | 1009.5 |
| 20260902040304 | 59 | 223 | 0.0 | 0.0 | 0.00 | 0.02 | 0.02 | 94 | 1009.5 |
| 20260902035801 | 59 | 223 | 0.0 | 0.0 | 0.00 | 0.02 | 0.02 | 94 | 1009.5 |
| 20260902035252 | 59 | 223 | 0.0 | 0.0 | 0.00 | 0.02 | 0.02 | 94 | 1009.7 |
| 20260902034745 | 59 | 223 | 0.0 | 0.0 | 0.00 | 0.02 | 0.02 | 94 | 1009.8 |
| 20260902034240 | 59 | 223 | 0.0 | 0.0 | 0.00 | 0.02 | 0.02 | 94 | 1009.7 |
| 20260902033736 | 59 | 223 | 0.0 | 0.0 | 0.01 | 0.02 | 0.02 | 94 | 1009.7 |
| 20260902033225 | 59 | 223 | 0.0 | 0.0 | 0.01 | 0.02 | 0.02 | 94 | 1009.5 |
| 20260902032722 | 59 | 223 | 0.0 | 0.0 | 0.01 | 0.02 | 0.02 | 94 | 1009.4 |
| 20260902032215 | 59 | 223 | 0.0 | 2.0 | 0.01 | 0.02 | 0.02 | 94 | 1009.5 |
| 20260902031712 | 59 | 223 | 0.0 | 2.0 | 0.01 | 0.02 | 0.02 | 94 | 1009.3 |
| 20260902031204 | 59 | 223 | 0.0 | 1.0 | 0.01 | 0.02 | 0.02 | 94 | 1009.2 |
| 20260902030654 | 60 | 223 | 0.0 | 1.0 | 0.01 | 0.02 | 0.02 | 94 | 1009.3 |
| 20260902030152 | 60 | 223 | 0.0 | 0.0 | 0.01 | 0.02 | 0.02 | 94 | 1009.2 |
| 20260902025648 | 60 | 223 | 0.0 | 0.0 | 0.01 | 0.02 | 0.02 | 94 | 1009.2 |
| 20260902025141 | 60 | 223 | 0.0 | 0.0 | 0.01 | 0.02 | 0.02 | 94 | 1009.2 |
| 20260902024634 | 60 | 223 | 0.0 | 0.0 | 0.01 | 0.02 | 0.02 | 94 | 1009.2 |
| 20260902024129 | 60 | 223 | 0.0 | 1.0 | 0.01 | 0.02 | 0.02 | 94 | 1009.2 |
| 20260902023629 | 60 | 223 | 0.0 | 1.0 | 0.00 | 0.01 | 0.01 | 93 | 1009.2 |
| 20260902023354 | 60 | 223 | 0.0 | 0.0 | 0.00 | 0.01 | 0.01 | 93 | 1009.3 |
| 20260902022630 | 60 | 223 | 0.0 | 0.0 | 0.00 | 0.01 | 0.01 | 93 | 1009.2 |
| 20260902022130 | 60 | 223 | 0.0 | 0.0 | 0.00 | 0.01 | 0.01 | 93 | 1009.1 |
| 20260902021628 | 60 | 223 | 0.0 | 0.0 | 0.00 | 0.01 | 0.01 | 93 | 1009.2 |
| 20260902021124 | 60 | 223 | 0.0 | 1.0 | 0.00 | 0.01 | 0.01 | 93 | 1009.2 |
| 20260902020625 | 60 | 223 | 0.0 | 1.0 | 0.00 | 0.01 | 0.01 | 93 | 1009.2 |
| 20260902020358 | 60 | 223 | 0.0 | 0.0 | 0.00 | 0.01 | 0.01 | 93 | 1009.2 |
| 20260902015623 | 60 | 223 | 0.0 | 0.0 | 0.00 | 0.01 | 0.01 | 93 | 1009.2 |
| 20260902015352 | 60 | 223 | 0.0 | 0.0 | 0.00 | 0.01 | 0.01 | 93 | 1009.2 |
| 20260902014624 | 60 | 223 | 0.0 | 1.0 | 0.00 | 0.01 | 0.01 | 93 | 1009.3 |